Regional Weather Roundup
Issued by NWS Goodland, KS

Home | Current Version | Previous Version | Graphics & Text | Print | Product List | Glossary On
Versions: 1 2 3 4 5 6 7 8 9 10 11 12 13 14 15 16 17 18 19 20 21 22 23 24 25 26 27 28 29 30 31 32 33 34 35 36 37 38 39 40 41 42 43 44 45 46 47 48 49 50
000
ASUS43 KGLD 301259
RWRGLD

GOODLAND FORECAST AREA HOURLY WEATHER ROUNDUP
NATIONAL WEATHER SERVICE GOODLAND KS
700 AM MDT THU JUL 30 2015

...OFFICIAL OBSERVATIONS...

CITY           SKY/WX    TMP DP  RH WIND       PRES   REMARKS
GOODLAND KS    SUNNY     65  60  84 S7        30.29R
HILL CITY KS   CLOUDY    69  62  78 CALM      30.26R
IMPERIAL NEB   SUNNY     59  53  80 SW3       30.27S
MCCOOK NEB     SUNNY     60  55  83 CALM      30.26R
AKRON CO       SUNNY     63  62  97 S12       30.31R
BURLINGTON CO  MOSUNNY   65  62  90 S10       30.32R
LIMON CO       FOG       61  61 100 S7        30.37R VSB 1/4
$$

...UNOFFICIAL OBSERVATIONS...

CITY           SKY/WX    TMP DP  RH WIND       PRES   REMARKS
COLBY KS       SUNNY     63  61  94 CALM      30.29S
NORTON KS      MOSUNNY   61  57  88 CALM      30.25
SHARON SPRINGS   N/A     66  64  94 S7          N/A
KIT CARSON CO    N/A     66  62  86 MISG        N/A
$$


USA.gov is the U.S. government's official web portal to all federal, state and local government web resources and services.